Weather History for Syracuse, NY

Change the Weather History Date:

Sunday, March 17, 2013

  Actual Average Record
Temperature  
Mean Temperature 26 °F 34 °F  
Max Temperature 34 °F 43 °F 73 °F (1927)
Min Temperature 18 °F 25 °F 4 °F (2014)
Degree Days  
Heating Degree Days 39 31  
Month to date heating degree days 547 570  
Since 1 July heating degree days 4918 5401  
Cooling Degree Days 0 0  
Month to date cooling degree days 0 0  
Year to date cooling degree days 0 0  
Moisture  
Dew Point 13 °F    
Average Humidity 55    
Maximum Humidity 84    
Minimum Humidity 8    
Precipitation  
Precipitation 0.02 in 0.09 in 1.14 in (1973)
Month to date precipitation 0.66 1.52  
Year to date precipitation 5.08 6.09  
Snow  
Snow 0.50 in 0.60 in 7.90 in (1974)
Month to date snowfall 6.7 12.4  
Since 1 July snowfall 89.9 114.3  
Snow Depth 0.00 in    
Sea Level Pressure  
Sea Level Pressure 30.15 in    
Wind  
Wind Speed 8 mph (WNW)    
Max Wind Speed 18 mph    
Max Gust Speed 25 mph    
Visibility 9 miles    
Events Snow    
T = Trace of Precipitation, MM = Missing Value Source: NWS Daily Summary

Daily Weather History Graph

Daily Weather History Graph

Search for Another Location

Airport:

Trip Planner

Search our weather history database for the weather conditions in past years. The results will help you decide how hot, cold, wet, or windy it might be!

Date:

Astronomy

Mar. 17, 2013 Rise Set
Actual Time 7:12 AM EDT 7:13 PM EDT
Civil Twilight 6:44 AM EDT 7:41 PM EDT
Nautical Twilight 6:11 AM EDT 8:14 PM EDT
Astronomical Twilight 5:37 AM EDT 8:48 PM EDT
Moon 10:14 AM EDT (3/17) 12:27 AM EDT (3/17)
Length of Visible Light 12h 57m
Length of Day
12h 00m
Waxing Crescent, 31% of the Moon is Illuminated
Mar 17
Waxing Crescent
Mar 19
First Quarter
Mar 27
Full
Apr 3
Last Quarter
Apr 10
New

Hourly Weather History & Observations

Time (EDT) Temp. Windchill Dew Point Humidity Pressure Visibility Wind Dir Wind Speed Gust Speed Precip Events Conditions
12:54 AM 23.0 °F 15.8 °F 10.4 °F 59% 29.97 in 10.0 mi SW 5.8 mph - N/A   Clear
1:54 AM 22.1 °F 14.7 °F 12.4 °F 66% 29.99 in 10.0 mi West 5.8 mph - N/A   Partly Cloudy
2:54 AM 23.0 °F 11.7 °F 14.0 °F 68% 30.02 in 10.0 mi WSW 11.5 mph - N/A Snow Light Snow
3:54 AM 23.0 °F 11.7 °F 14.0 °F 68% 30.00 in 10.0 mi WSW 11.5 mph - 0.00 in Snow Light Snow
4:54 AM 24.8 °F 14.0 °F 17.6 °F 74% 30.01 in 9.0 mi WNW 11.5 mph - 0.00 in Snow Light Snow
5:24 AM 24.8 °F 15.3 °F 19.4 °F 80% 30.00 in 4.0 mi West 9.2 mph - 0.00 in Snow Light Snow
5:36 AM 24.8 °F 15.3 °F 19.4 °F 80% 30.01 in 2.0 mi WNW 9.2 mph - 0.00 in Snow Light Snow
5:54 AM 24.4 °F 13.5 °F 19.4 °F 81% 30.04 in 1.0 mi WNW 11.5 mph - 0.01 in Snow Light Snow
6:12 AM 24.8 °F 15.3 °F 19.4 °F 80% 30.04 in 4.0 mi West 9.2 mph - 0.01 in Snow Light Snow
6:54 AM 21.9 °F 15.7 °F 17.8 °F 84% 30.07 in 10.0 mi WNW 4.6 mph - 0.00 in Snow Light Snow
7:54 AM 21.7 °F 13.2 °F 14.2 °F 73% 30.09 in 10.0 mi NW 6.9 mph - 0.00 in   Scattered Clouds
8:54 AM 23.5 °F 13.7 °F 13.6 °F 66% 30.12 in 10.0 mi NNW 9.2 mph - N/A   Scattered Clouds
9:54 AM 24.6 °F 16.7 °F 14.5 °F 66% 30.16 in 10.0 mi NNW 6.9 mph - N/A   Scattered Clouds
10:54 AM 26.8 °F 20.2 °F 13.8 °F 58% 30.17 in 10.0 mi NW 5.8 mph - N/A   Mostly Cloudy
11:54 AM 28.0 °F 18.1 °F 11.1 °F 49% 30.18 in 10.0 mi NW 11.5 mph - N/A   Mostly Cloudy
12:54 PM 28.8 °F 19.0 °F 10.9 °F 47% 30.21 in 10.0 mi NW 11.5 mph - N/A   Mostly Cloudy
1:54 PM 28.9 °F 19.8 °F 13.3 °F 52% 30.21 in 10.0 mi NNW 10.4 mph - N/A   Mostly Cloudy
2:54 PM 30.6 °F 22.4 °F 11.7 °F 45% 30.21 in 10.0 mi NNW 9.2 mph - N/A   Mostly Cloudy
3:54 PM 32.0 °F 22.5 °F 11.3 °F 42% 30.22 in 10.0 mi NW 12.7 mph - N/A   Mostly Cloudy
4:54 PM 31.5 °F 20.9 °F 10.4 °F 42% 30.23 in 10.0 mi NNW 15.0 mph - N/A   Mostly Cloudy
5:54 PM 30.4 °F 20.5 °F 7.0 °F 37% 30.24 in 10.0 mi NNW 12.7 mph - N/A   Scattered Clouds
6:54 PM 29.8 °F 22.2 °F 7.0 °F 38% 30.27 in 10.0 mi NW 8.1 mph - N/A   Scattered Clouds
7:54 PM 30.2 °F 22.6 °F 8.2 °F 40% 30.14 in 10.0 mi NW 8.1 mph - N/A   Scattered Clouds
8:54 PM 27.3 °F 22.0 °F 9.3 °F 47% 30.33 in 10.0 mi NW 4.6 mph - N/A   Partly Cloudy
9:54 PM 24.1 °F - 8.2 °F 51% 30.31 in 10.0 mi Calm Calm - N/A   Partly Cloudy
10:54 PM 24.8 °F - 9.1 °F 51% 30.35 in 10.0 mi Calm Calm - N/A   Scattered Clouds
11:54 PM 23.4 °F - 9.9 °F 56% 30.35 in 10.0 mi Calm Calm - N/A   Partly Cloudy